User: anonymous   Login
Location: Unspecified
(0.0000°N, 0.0000°E)
Time: 07:49:37
(UTC+02:00)
Language:

Cosmos 1898 Rocket - Orbit

View from above orbital plane
View from above orbital plane
View from above satellite
View from above satellite

Ground track
Ground track

The orbit data is extracted from the following two-line orbital elements,

1 18586U 87098B   18112.37012995 +.00000134 +00000-0 +54171-4 0  9999
2 18586 074.0060 085.9903 0019777 068.5284 291.7976 14.36819350591461
Epoch (UTC): 22 April 2018 08:52:59
Eccentricity: 0.0019777
inclination: 74.0060°
perigee height: 755 km
apogee height: 783 km
right ascension of ascending node: 85.9903°
argument of perigee: 68.5284°
revolutions per day: 14.36819350
mean anomaly at epoch: 291.7976°
orbit number at epoch: 59146

The dashed part of the orbit path shows where the satellite is in the earth's shadow,  

DLR